This is the latest recevied weather packets stored in our database for station/object W9WRP. If no packets are shown the sender has not sent any weather packets the latest 10 day(s).
| Time | Temp. | Humidity | Pressure | Rain* | Wind** | Luminosity | Snow |
|---|---|---|---|---|---|---|---|
| 1787500584 | 38.89° C | 20% | 1016.2 hPa | 0 mm | - | 116 W/m² | - |
| 1787500279 | 38.89° C | 20% | 1016.4 hPa | 0 mm | - | 197 W/m² | - |
| 1787499978 | 38.33° C | 21% | 1016.3 hPa | 0 mm | - | 116 W/m² | - |
| 1787499673 | 38.33° C | 21% | 1016.4 hPa | 0 mm | - | 75 W/m² | - |
| 1787499373 | 37.78° C | 22% | 1016.5 hPa | 0 mm | - | 203 W/m² | - |
| 1787499069 | 37.22° C | 22% | 1016.2 hPa | 0 mm | - | 83 W/m² | - |
| 1787498766 | 37.22° C | 22% | 1016.2 hPa | 0 mm | - | 51 W/m² | - |
| 1787498463 | 36.67° C | 22% | 1016.2 hPa | 0 mm | - | 49 W/m² | - |
| 1787498158 | 36.67° C | 23% | 1016.1 hPa | 0 mm | - | 63 W/m² | - |
| 1787497854 | 36.67° C | 23% | 1016 hPa | 0 mm | - | 74 W/m² | - |
| 1787497550 | 36.67° C | 23% | 1016.2 hPa | 0 mm | - | 42 W/m² | - |
| 1787497250 | 36.67° C | 23% | 1016.1 hPa | 0 mm | - | 42 W/m² | - |
| 1787496949 | 36.67° C | 23% | 1016 hPa | 0 mm | - | 41 W/m² | - |
| 1787496644 | 36.11° C | 23% | 1016 hPa | 0 mm | - | 46 W/m² | - |
| 1787496339 | 36.11° C | 23% | 1016.1 hPa | 0 mm | - | 51 W/m² | - |
| 1787496039 | 36.67° C | 23% | 1015.9 hPa | 0 mm | - | 45 W/m² | - |
| 1787495734 | 36.11° C | 23% | 1015.9 hPa | 0 mm | - | 39 W/m² | - |
| 1787495430 | 35.56° C | 24% | 1016 hPa | 0 mm | - | 52 W/m² | - |
| 1787495121 | 35° C | 24% | 1015.6 hPa | 0 mm | - | 34 W/m² | - |
| 1787494821 | 35° C | 24% | 1015.7 hPa | 0 mm | - | 39 W/m² | - |
| 1787494516 | 34.44° C | 25% | 1015.6 hPa | 0 mm | - | 31 W/m² | - |
| 1787494211 | 33.89° C | 25% | 1015.6 hPa | 0 mm | - | 36 W/m² | - |
| 1787493907 | 33.89° C | 26% | 1015.3 hPa | 0 mm | - | 29 W/m² | - |
| 1787493602 | 33.33° C | 26% | 1015.3 hPa | 0 mm | - | 39 W/m² | - |
| 1787493297 | 32.78° C | 27% | 1015.3 hPa | 0 mm | - | 27 W/m² | - |
* Rain latest hour (hover to see other rain measurements)
** Current wind speed in m/s (hover to see current wind gust speed)